SCP
0 0 0 0 0 0 0 0 0 0 0 0 0 0 0 0 0 0 0 0 0 0 0 0 0 0 0 0 0 0 0 0 0 0 0 0 0 0 0 0 0 0 0
0 0 0 0 0 0 0 0 0 0 0 0 0 0 0 0 0 0 0 0 0 0 0 0 0 0 0 0 0 0 0 0 0 0 0 0 0 0 0 0 0 0 0
0 0 0 0 0 0 0 0 0 0 0 0 0 0 0 0 0 0 0 0 0 0 0 0 0 0 0 0 0 0 0 0 0 0 0 0 0 0 0 0 0 0 0
0 0 0 0 0 0 0 0 0 0 0 0 0 0 0 0 0 0 0 0 0 0 0 0 0 0 0 0 0 0 0 0 0 0 0 0 0 0 0 0 0 0 0
0 0 0 0 0 0 0 0 0 0 0 0 0 0 0 0 0 0 0 0 0 0 0 0 0 0 0 0 0 0 0 0 0 0 0 0 0 0 0 0 0 0 0
0 0 0 0 0 0 0 0 0 0 0 0 0 0 0 0 0 0 0 0 0 0 0 0 0 0 0 0 0 0 0 0 0 0 0 0 0 0 0 0 0 0 0
0 0 0 0 0 0 0 0 0 0 0 0 0 0 0 0 0 0 0 0 0 0 0 0 0 0 0 0 0 0 0 0 0 0 0 0 0 0 0 0 0 0 -0
0 0 0 0 0 0 0 0 0 0 0 0 0 0 0 0 0 0 0 0 0 0 0 0 0 0 0 0 0 0 0 0 0 0 0 0 0 0 0 0 0 -0 -0
0 0 0 0 0 0 0 0 0 0 0 0 0 0 0 0 0 0 0 0 0 0 0 0 0 0 0 0 0 0 0 0 0 0 0 -0 -0 0 0 0 0 0 0
0 0 0 0 0 0 0 0 0 0 0 0 0 0 0 0 0 0 0 0 0 0 0 0 0 0 0 0 0 0 0 0 0 0 0 0 0 0 0 0 0 0 0
0 0 0 0 0 0 0 0 0 0 0 0 0 0 0 0 0 0 0 0 0 0 0 0 0 0 0 0 0 0 0 0 0 0 0 0 0 0 0 0 0 0 0
0 0 0 0 0 0 0 0 0 0 0 0 0 0 0 0 0 0 0 0 0 0 0 0 0 0 0 0 0 0 0 0 0 0 0 0 0 0 0 0 0 0 0
0 0 0 0 0 0 0 0 0 0 0 0 0 0 0 0 0 0 0 0 0 0 0 0 0 0 0 0 0 0 0 0 0 0 0 0 0 0 0 0 0 0 0
0 0 0 0 0 0 0 0 0 0 0 0 0 0 0 0 0 0 0 0 0 0 0 0 0 0 0 0 0 0 0 0 0 0 0 0 0 -0 0 0 0 0 0
0 0 0 0 0 0 0 0 0 0 0 0 0 0 0 0 0 0 0 0 0 0 0 0 0 0 0 0 0 0 0 0 0 0 0 0 0 -0 -0 -0 0 0 0
0 0 0 0 0 0 0 0 0 0 0 0 0 0 0 0 0 0 0 0 0 0 0 0 0 0 0 0 0 0 0 0 0 0 0 0 0 -0 -0 -0 -0 0 0
0 0 0 0 0 0 0 0 0 0 0 0 0 0 0 0 0 0 0 0 0 0 0 0 0 0 0 0 0 0 0 0 0 0 0 0 0 0 0 -0 -0 -0 -0
0 0 0 0 0 0 0 0 0 0 0 0 0 0 0 0 0 0 0 0 0 0 0 0 0 0 0 0 0 0 0 0 0 0 0 0 0 0 0 0 -0 -0 -0
0 0 0 0 0 0 0 0 0 0 0 0 0 0 0 0 0 0 0 0 0 0 0 0 0 0 0 0 0 0 0 0 0 0 0 0 0 0 0 0 -0 -0 0
0 0 0 0 0 0 0 0 0 0 0 0 0 0 0 0 0 0 0 0 0 0 0 0 0 0 0 0 0 0 0 0 0 0 0 0 0 -0 0 0 0 0 -0
0 0 0 0 0 0 0 0 0 0 0 0 0 0 0 0 0 0 0 0 0 0 0 0 0 0 0 0 0 0 0 0 0 0 0 0 0 -0 0 0 0 0 0
0 0 0 0 0 0 0 0 0 0 0 0 0 0 0 0 0 0 0 0 0 0 0 0 0 0 0 0 -0 -0 0 0 0 -0 -0 0 0 0 0 0 0 0 0
0 0 0 0 0 0 0 0 0 0 0 0 0 0 0 0 0 0 0 0 0 0 0 0 0 0 0 0 0 -0 -0 0 0 -0 -0 0 0 0 0 0 0 0 0
0 0 0 0 0 0 0 0 0 0 0 0 0 0 0 0 0 0 0 0 0 0 0 0 0 0 0 0 0 0 0 0 -0 0 -0 -0 -0 -0 0 0 0 0 0
0 0 0 0 0 0 0 0 0 0 0 0 0 0 0 0 0 0 0 0 0 0 0 0 0 0 0 0 0 0 -0 -0 0 0 -0 -0 -0 -0 -0 0 0 0 0
0 0 0 0 0 0 0 0 0 0 0 0 0 0 0 0 0 0 0 0 0 0 0 0 0 0 0 0 0 -0 -0 -0 0 0 0 -0 -0 -0 0 0 0 0 0
Wind_Speed_500mb
89 87 88 87 86 94 96 94 87 79 72 64 58 53 52 51 52 53 54 56 58 63 65 67 71 71 75 79 82 84 83 73 87 139 137 144 140 126 109 112 117 116 115
95 91 90 89 88 93 94 92 85 79 70 61 56 55 54 52 52 53 55 55 60 65 66 68 72 73 79 81 84 86 86 83 83 99 133 135 124 125 109 107 115 115 109
91 92 92 93 93 95 95 88 82 75 67 60 56 54 52 52 52 53 55 56 62 66 67 70 74 77 83 83 83 84 85 84 85 93 114 117 118 111 116 111 107 105 95
88 90 93 96 96 96 89 82 79 72 67 61 57 53 51 51 51 53 53 58 63 67 69 72 75 77 81 82 81 81 86 89 91 96 104 108 102 105 101 103 105 97 91
86 87 92 95 94 90 78 77 75 71 66 61 55 51 50 49 50 48 52 57 64 69 71 75 77 78 76 69 75 86 88 94 95 96 103 99 98 93 91 91 94 94 108
84 86 90 93 92 84 75 76 76 70 63 58 53 49 48 48 47 45 52 58 65 69 73 75 76 77 80 70 70 77 81 93 104 101 107 99 100 97 98 101 95 91 89
81 82 86 88 86 77 72 77 76 68 62 56 51 47 45 45 43 47 52 57 63 65 69 71 75 79 82 86 86 87 92 93 93 103 117 110 106 97 101 107 100 96 97
81 83 85 88 81 76 75 79 76 67 59 51 48 46 42 42 43 47 51 57 60 62 64 69 77 83 81 78 88 100 106 102 98 98 104 113 112 108 99 112 109 107 109
79 82 86 84 81 80 82 82 73 64 56 52 47 44 41 39 41 43 47 51 56 61 65 69 71 81 82 76 84 99 112 110 101 98 97 100 99 100 99 99 99 93 104
74 80 81 79 77 78 79 76 69 59 55 48 45 41 41 36 36 37 38 44 55 63 67 73 79 75 73 78 92 100 107 106 99 100 104 101 99 94 89 91 96 100 102
71 76 79 79 77 78 77 75 68 58 53 48 42 40 35 33 30 31 29 35 48 61 74 79 81 73 75 84 79 87 95 87 97 98 99 93 92 93 85 85 98 97 102
70 74 75 75 78 82 79 71 61 55 53 48 42 35 29 24 23 24 24 30 39 55 67 77 75 76 80 74 73 70 79 76 83 79 81 73 72 73 78 84 84 86 97
70 74 72 76 84 83 76 65 56 55 49 43 36 28 19 17 15 17 29 30 40 47 59 58 71 75 75 76 68 66 74 63 72 75 75 73 71 65 81 84 84 88 100
71 73 75 87 89 82 72 62 61 53 48 42 33 23 15 12 11 21 33 41 48 52 54 62 63 64 66 69 74 71 72 66 70 75 77 76 73 75 65 77 79 80 86
74 78 86 92 88 79 69 64 60 52 43 37 28 19 12 7 11 16 24 33 40 40 49 55 64 70 75 77 78 79 78 85 72 79 81 79 72 75 66 51 61 74 83
84 89 99 98 90 81 74 66 56 45 41 34 24 17 8 3 7 11 16 24 30 37 48 58 65 72 76 81 83 87 85 88 82 84 87 81 73 78 75 69 70 57 74
90 101 107 100 92 84 76 67 60 52 43 34 25 17 7 3 4 9 16 22 30 36 49 55 62 72 79 82 85 87 88 95 86 89 93 77 85 76 70 69 65 66 58
92 106 107 99 92 81 75 64 59 52 48 37 27 18 11 3 2 7 15 19 25 36 48 54 61 68 78 84 88 93 97 98 91 98 87 88 81 74 73 69 66 66 65
105 108 103 94 85 78 69 65 57 48 42 35 30 23 15 9 5 5 13 21 32 40 46 53 58 65 72 82 90 95 96 92 98 97 95 88 83 78 75 68 68 67 65
104 107 98 94 83 73 67 62 57 51 43 36 32 26 20 14 7 2 10 19 29 36 45 52 57 62 71 77 87 97 100 94 100 107 103 94 86 81 76 73 70 69 66
118 109 103 90 79 75 66 58 53 50 44 40 36 29 23 16 8 5 15 24 30 35 43 49 54 60 68 77 84 89 98 97 100 115 113 104 93 88 81 74 73 67 65
115 110 100 85 77 69 63 59 54 49 45 41 38 30 22 13 5 9 17 23 26 32 39 46 50 56 66 75 83 88 92 98 100 124 121 111 99 92 86 82 70 61 58
106 98 88 81 72 67 65 58 54 49 44 41 32 26 20 12 5 8 16 20 24 28 33 41 48 54 59 67 73 81 81 93 94 130 123 113 106 99 92 87 71 62 56
95 85 78 73 71 69 61 57 52 45 43 35 28 23 16 9 2 9 15 19 24 26 32 37 45 54 56 61 67 75 74 89 90 124 118 114 108 105 102 91 75 66 54
86 78 70 71 69 64 60 54 50 46 39 33 26 20 13 6 2 9 14 19 23 26 31 37 44 51 56 54 63 69 76 84 93 116 119 117 114 111 107 99 84 68 51
76 70 69 64 61 58 54 52 48 42 36 30 24 16 11 4 3 9 16 22 26 29 32 36 43 48 53 53 61 68 78 81 90 109 118 116 117 116 115 108 95 79 61
Wind_Direction_500mb
235 237 238 240 241 241 239 236 234 235 235 238 246 254 261 265 270 275 281 288 291 293 294 294 295 298 296 295 292 288 277 264 263 285 289 297 294 293 293 292 291 291 290
239 236 237 238 241 241 239 235 231 232 234 238 246 254 259 265 269 276 284 288 291 292 294 295 296 298 297 297 295 289 284 274 265 269 285 289 287 292 291 290 289 291 293
240 236 237 238 239 241 239 234 230 230 234 238 245 254 261 266 272 280 285 289 291 293 295 296 301 300 299 301 297 286 281 277 273 271 275 280 283 285 288 288 289 291 293
241 239 238 239 240 240 238 234 229 230 233 239 245 253 259 266 273 280 287 291 293 296 299 299 300 302 302 302 295 287 288 283 279 276 277 278 279 282 280 281 284 290 292
242 242 240 237 238 239 236 232 227 228 233 239 245 253 259 266 274 282 289 292 295 297 300 304 305 305 305 293 289 289 288 284 281 280 280 279 278 277 274 278 280 284 288
244 242 236 235 236 235 232 228 225 228 233 241 248 253 259 267 276 288 292 293 296 300 303 307 309 310 311 298 292 289 285 284 284 282 281 279 281 278 276 271 274 277 281
242 236 234 233 232 232 230 223 222 226 233 240 247 254 259 270 282 288 291 294 297 302 307 311 315 317 316 310 306 298 293 287 281 281 278 275 278 279 277 273 274 275 276
236 233 231 230 229 227 225 220 220 224 231 239 247 252 261 273 283 288 295 296 301 306 313 319 321 321 312 307 305 300 297 294 290 285 280 278 273 276 275 272 272 275 277
233 231 230 228 225 220 213 213 218 224 229 237 244 251 262 273 280 291 293 298 306 316 319 321 319 311 312 311 307 302 301 297 294 289 283 279 276 272 268 270 266 266 269
229 226 226 225 223 217 211 210 215 220 230 233 240 252 263 273 284 287 297 308 314 318 321 317 318 317 313 316 310 304 300 300 301 299 295 289 279 278 265 260 264 260 265
230 226 223 220 216 211 208 210 213 217 226 231 240 248 259 271 281 295 305 309 316 320 311 318 324 321 320 316 315 302 302 303 302 298 296 296 286 269 269 268 262 259 263
230 227 221 214 206 204 207 208 210 216 222 227 232 241 253 273 295 303 310 314 319 311 316 320 327 322 320 319 319 311 312 304 304 313 303 303 292 281 271 269 269 263 260
231 224 217 207 201 201 204 206 211 220 222 225 230 232 246 269 293 315 327 327 323 319 319 323 323 327 330 333 331 322 324 323 325 317 314 304 296 295 284 273 271 269 262
231 222 208 201 196 196 199 202 212 216 219 223 225 235 244 273 310 329 341 337 331 328 333 332 330 335 342 342 345 345 337 332 324 321 315 308 300 301 292 276 269 264 258
226 218 205 199 196 193 198 206 212 211 221 222 223 219 236 279 339 346 339 334 328 337 330 336 345 351 350 351 350 352 345 342 330 326 321 320 313 310 297 280 277 268 255
218 209 202 196 192 193 194 196 200 206 207 210 204 210 216 304 337 351 343 340 343 345 345 353 357 358 357 355 352 348 347 338 338 327 325 321 313 310 304 290 272 282 253
215 206 198 193 194 192 193 194 197 194 193 195 191 189 180 268 1 359 357 3 353 356 360 4 2 1 359 358 355 349 339 340 339 329 325 320 316 311 306 297 287 278 276
212 205 195 196 194 193 193 194 198 199 188 181 180 175 162 194 96 26 12 4 0 10 12 7 2 2 1 0 358 353 348 343 337 331 329 323 320 315 309 302 292 284 274
203 196 196 193 192 193 193 193 191 188 184 176 171 164 164 175 149 49 1 358 8 12 11 9 4 1 359 1 1 358 350 344 336 336 332 328 325 322 313 308 300 289 281
198 193 192 193 189 193 189 186 182 182 177 173 168 164 165 173 154 262 5 13 14 9 7 6 4 360 358 359 359 359 353 346 340 340 337 334 330 326 317 313 305 296 286
191 189 191 185 190 186 184 179 179 177 173 171 168 166 170 165 150 53 24 15 12 8 3 1 1 360 359 359 357 353 355 347 342 343 341 338 336 329 326 319 310 299 291
190 185 183 182 182 181 179 177 175 176 172 171 165 160 161 142 106 42 24 18 11 6 1 358 357 359 359 360 359 355 353 349 343 346 346 345 339 336 332 328 323 309 297
187 179 175 174 177 177 175 173 174 174 171 168 160 159 149 137 105 32 19 9 5 359 356 357 357 357 1 0 2 360 354 354 344 349 354 352 345 342 341 339 335 321 306
182 175 170 174 173 174 172 172 172 170 171 161 158 157 151 140 119 19 5 359 355 354 355 356 358 1 359 360 1 4 1 3 349 350 359 359 352 353 351 352 346 334 320
172 169 172 174 174 171 170 171 170 171 164 162 161 160 151 169 50 6 352 349 341 348 354 354 358 2 1 359 2 4 9 6 351 354 1 4 5 6 1 0 357 350 342
165 170 173 172 170 172 172 171 170 166 164 165 164 162 172 188 359 348 341 336 339 347 351 353 355 358 3 359 4 5 11 5 353 357 3 6 9 11 10 8 6 4 2
Wind_Speed_850mb
89 87 88 87 86 94 96 94 87 79 72 64 58 53 52 51 52 53 54 56 58 63 65 67 71 71 75 79 82 84 83 73 87 139 137 144 140 126 109 112 117 116 115
95 91 90 89 88 93 94 92 85 79 70 61 56 55 54 52 52 53 55 55 60 65 66 68 72 73 79 81 84 86 86 83 83 99 133 135 124 125 109 107 115 115 109
91 92 92 93 93 95 95 88 82 75 67 60 56 54 52 52 52 53 55 56 62 66 67 70 74 77 83 83 83 84 85 84 85 93 114 117 118 111 116 111 107 105 95
88 90 93 96 96 96 89 82 79 72 67 61 57 53 51 51 51 53 53 58 63 67 69 72 75 77 81 82 81 81 86 89 91 96 104 108 102 105 101 103 105 97 91
86 87 92 95 94 90 78 77 75 71 66 61 55 51 50 49 50 48 52 57 64 69 71 75 77 78 76 69 75 86 88 94 95 96 103 99 98 93 91 91 94 94 108
84 86 90 93 92 84 75 76 76 70 63 58 53 49 48 48 47 45 52 58 65 69 73 75 76 77 80 70 70 77 81 93 104 101 107 99 100 97 98 101 95 91 89
81 82 86 88 86 77 72 77 76 68 62 56 51 47 45 45 43 47 52 57 63 65 69 71 75 79 82 86 86 87 92 93 93 103 117 110 106 97 101 107 100 96 97
81 83 85 88 81 76 75 79 76 67 59 51 48 46 42 42 43 47 51 57 60 62 64 69 77 83 81 78 88 100 106 102 98 98 104 113 112 108 99 112 109 107 109
79 82 86 84 81 80 82 82 73 64 56 52 47 44 41 39 41 43 47 51 56 61 65 69 71 81 82 76 84 99 112 110 101 98 97 100 99 100 99 99 99 93 104
74 80 81 79 77 78 79 76 69 59 55 48 45 41 41 36 36 37 38 44 55 63 67 73 79 75 73 78 92 100 107 106 99 100 104 101 99 94 89 91 96 100 102
71 76 79 79 77 78 77 75 68 58 53 48 42 40 35 33 30 31 29 35 48 61 74 79 81 73 75 84 79 87 95 87 97 98 99 93 92 93 85 85 98 97 102
70 74 75 75 78 82 79 71 61 55 53 48 42 35 29 24 23 24 24 30 39 55 67 77 75 76 80 74 73 70 79 76 83 79 81 73 72 73 78 84 84 86 97
70 74 72 76 84 83 76 65 56 55 49 43 36 28 19 17 15 17 29 30 40 47 59 58 71 75 75 76 68 66 74 63 72 75 75 73 71 65 81 84 84 88 100
71 73 75 87 89 82 72 62 61 53 48 42 33 23 15 12 11 21 33 41 48 52 54 62 63 64 66 69 74 71 72 66 70 75 77 76 73 75 65 77 79 80 86
74 78 86 92 88 79 69 64 60 52 43 37 28 19 12 7 11 16 24 33 40 40 49 55 64 70 75 77 78 79 78 85 72 79 81 79 72 75 66 51 61 74 83
84 89 99 98 90 81 74 66 56 45 41 34 24 17 8 3 7 11 16 24 30 37 48 58 65 72 76 81 83 87 85 88 82 84 87 81 73 78 75 69 70 57 74
90 101 107 100 92 84 76 67 60 52 43 34 25 17 7 3 4 9 16 22 30 36 49 55 62 72 79 82 85 87 88 95 86 89 93 77 85 76 70 69 65 66 58
92 106 107 99 92 81 75 64 59 52 48 37 27 18 11 3 2 7 15 19 25 36 48 54 61 68 78 84 88 93 97 98 91 98 87 88 81 74 73 69 66 66 65
105 108 103 94 85 78 69 65 57 48 42 35 30 23 15 9 5 5 13 21 32 40 46 53 58 65 72 82 90 95 96 92 98 97 95 88 83 78 75 68 68 67 65
104 107 98 94 83 73 67 62 57 51 43 36 32 26 20 14 7 2 10 19 29 36 45 52 57 62 71 77 87 97 100 94 100 107 103 94 86 81 76 73 70 69 66
118 109 103 90 79 75 66 58 53 50 44 40 36 29 23 16 8 5 15 24 30 35 43 49 54 60 68 77 84 89 98 97 100 115 113 104 93 88 81 74 73 67 65
115 110 100 85 77 69 63 59 54 49 45 41 38 30 22 13 5 9 17 23 26 32 39 46 50 56 66 75 83 88 92 98 100 124 121 111 99 92 86 82 70 61 58
106 98 88 81 72 67 65 58 54 49 44 41 32 26 20 12 5 8 16 20 24 28 33 41 48 54 59 67 73 81 81 93 94 130 123 113 106 99 92 87 71 62 56
95 85 78 73 71 69 61 57 52 45 43 35 28 23 16 9 2 9 15 19 24 26 32 37 45 54 56 61 67 75 74 89 90 124 118 114 108 105 102 91 75 66 54
86 78 70 71 69 64 60 54 50 46 39 33 26 20 13 6 2 9 14 19 23 26 31 37 44 51 56 54 63 69 76 84 93 116 119 117 114 111 107 99 84 68 51
76 70 69 64 61 58 54 52 48 42 36 30 24 16 11 4 3 9 16 22 26 29 32 36 43 48 53 53 61 68 78 81 90 109 118 116 117 116 115 108 95 79 61
Wind_Direction_850mb
235 237 238 240 241 241 239 236 234 235 235 238 246 254 261 265 270 275 281 288 291 293 294 294 295 298 296 295 292 288 277 264 263 285 289 297 294 293 293 292 291 291 290
239 236 237 238 241 241 239 235 231 232 234 238 246 254 259 265 269 276 284 288 291 292 294 295 296 298 297 297 295 289 284 274 265 269 285 289 287 292 291 290 289 291 293
240 236 237 238 239 241 239 234 230 230 234 238 245 254 261 266 272 280 285 289 291 293 295 296 301 300 299 301 297 286 281 277 273 271 275 280 283 285 288 288 289 291 293
241 239 238 239 240 240 238 234 229 230 233 239 245 253 259 266 273 280 287 291 293 296 299 299 300 302 302 302 295 287 288 283 279 276 277 278 279 282 280 281 284 290 292
242 242 240 237 238 239 236 232 227 228 233 239 245 253 259 266 274 282 289 292 295 297 300 304 305 305 305 293 289 289 288 284 281 280 280 279 278 277 274 278 280 284 288
244 242 236 235 236 235 232 228 225 228 233 241 248 253 259 267 276 288 292 293 296 300 303 307 309 310 311 298 292 289 285 284 284 282 281 279 281 278 276 271 274 277 281
242 236 234 233 232 232 230 223 222 226 233 240 247 254 259 270 282 288 291 294 297 302 307 311 315 317 316 310 306 298 293 287 281 281 278 275 278 279 277 273 274 275 276
236 233 231 230 229 227 225 220 220 224 231 239 247 252 261 273 283 288 295 296 301 306 313 319 321 321 312 307 305 300 297 294 290 285 280 278 273 276 275 272 272 275 277
233 231 230 228 225 220 213 213 218 224 229 237 244 251 262 273 280 291 293 298 306 316 319 321 319 311 312 311 307 302 301 297 294 289 283 279 276 272 268 270 266 266 269
229 226 226 225 223 217 211 210 215 220 230 233 240 252 263 273 284 287 297 308 314 318 321 317 318 317 313 316 310 304 300 300 301 299 295 289 279 278 265 260 264 260 265
230 226 223 220 216 211 208 210 213 217 226 231 240 248 259 271 281 295 305 309 316 320 311 318 324 321 320 316 315 302 302 303 302 298 296 296 286 269 269 268 262 259 263
230 227 221 214 206 204 207 208 210 216 222 227 232 241 253 273 295 303 310 314 319 311 316 320 327 322 320 319 319 311 312 304 304 313 303 303 292 281 271 269 269 263 260
231 224 217 207 201 201 204 206 211 220 222 225 230 232 246 269 293 315 327 327 323 319 319 323 323 327 330 333 331 322 324 323 325 317 314 304 296 295 284 273 271 269 262
231 222 208 201 196 196 199 202 212 216 219 223 225 235 244 273 310 329 341 337 331 328 333 332 330 335 342 342 345 345 337 332 324 321 315 308 300 301 292 276 269 264 258
226 218 205 199 196 193 198 206 212 211 221 222 223 219 236 279 339 346 339 334 328 337 330 336 345 351 350 351 350 352 345 342 330 326 321 320 313 310 297 280 277 268 255
218 209 202 196 192 193 194 196 200 206 207 210 204 210 216 304 337 351 343 340 343 345 345 353 357 358 357 355 352 348 347 338 338 327 325 321 313 310 304 290 272 282 253
215 206 198 193 194 192 193 194 197 194 193 195 191 189 180 268 1 359 357 3 353 356 360 4 2 1 359 358 355 349 339 340 339 329 325 320 316 311 306 297 287 278 276
212 205 195 196 194 193 193 194 198 199 188 181 180 175 162 194 96 26 12 4 0 10 12 7 2 2 1 0 358 353 348 343 337 331 329 323 320 315 309 302 292 284 274
203 196 196 193 192 193 193 193 191 188 184 176 171 164 164 175 149 49 1 358 8 12 11 9 4 1 359 1 1 358 350 344 336 336 332 328 325 322 313 308 300 289 281
198 193 192 193 189 193 189 186 182 182 177 173 168 164 165 173 154 262 5 13 14 9 7 6 4 360 358 359 359 359 353 346 340 340 337 334 330 326 317 313 305 296 286
191 189 191 185 190 186 184 179 179 177 173 171 168 166 170 165 150 53 24 15 12 8 3 1 1 360 359 359 357 353 355 347 342 343 341 338 336 329 326 319 310 299 291
190 185 183 182 182 181 179 177 175 176 172 171 165 160 161 142 106 42 24 18 11 6 1 358 357 359 359 360 359 355 353 349 343 346 346 345 339 336 332 328 323 309 297
187 179 175 174 177 177 175 173 174 174 171 168 160 159 149 137 105 32 19 9 5 359 356 357 357 357 1 0 2 360 354 354 344 349 354 352 345 342 341 339 335 321 306
182 175 170 174 173 174 172 172 172 170 171 161 158 157 151 140 119 19 5 359 355 354 355 356 358 1 359 360 1 4 1 3 349 350 359 359 352 353 351 352 346 334 320
172 169 172 174 174 171 170 171 170 171 164 162 161 160 151 169 50 6 352 349 341 348 354 354 358 2 1 359 2 4 9 6 351 354 1 4 5 6 1 0 357 350 342
165 170 173 172 170 172 172 171 170 166 164 165 164 162 172 188 359 348 341 336 339 347 351 353 355 358 3 359 4 5 11 5 353 357 3 6 9 11 10 8 6 4 2